EW7929 Weather Reports


time (UTC)temp
C
wind
direction
speed
KPH
gust
KPH
rain 1hr
cm
rain 24hr
cm
rain mn
cm
humidity
%
barometer
mb
20260906040037 15 264 0.0 1.6 0.00 0.00 0.00 71 1021.7
20260906035536 15 264 0.0 1.6 0.00 0.00 0.00 70 1021.6
20260906035033 15 264 0.0 1.6 0.00 0.00 0.00 70 1021.6
20260906034533 15 264 0.0 1.6 0.00 0.00 0.00 70 1021.5
20260906034035 15 264 0.0 1.6 0.00 0.00 0.00 70 1021.4
20260906033531 15 264 0.0 1.6 0.00 0.00 0.00 70 1021.3
20260906033029 15 264 0.0 1.6 0.00 0.00 0.00 69 1021.3
20260906032030 16 264 0.0 1.6 0.00 0.00 0.00 68 1021.1
20260906031537 16 264 0.0 1.6 0.00 0.00 0.00 68 1021.1
20260906031025 16 264 0.0 1.6 0.00 0.00 0.00 69 1021.1
20260906030521 16 264 0.0 1.6 0.00 0.00 0.00 69 1021.1
20260906030023 16 128 0.0 4.8 0.00 0.00 0.00 68 1021.1
20260906025513 16 75 1.6 4.8 0.00 0.00 0.00 68 1020.9
20260906025013 16 89 0.0 3.2 0.00 0.00 0.00 68 1020.9
20260906024513 16 115 0.0 1.6 0.00 0.00 0.00 68 1020.9
20260906024017 16 139 0.0 0.0 0.00 0.00 0.00 67 1020.8
20260906023513 16 139 0.0 0.0 0.00 0.00 0.00 68 1020.8
20260906023013 16 139 0.0 1.6 0.00 0.00 0.00 67 1020.7
20260906022509 16 140 0.0 1.6 0.00 0.00 0.00 67 1020.7
20260906021508 16 139 0.0 3.2 0.00 0.00 0.00 67 1020.5
20260906021009 16 112 0.0 1.6 0.00 0.00 0.00 67 1020.6
20260906020508 16 127 0.0 0.0 0.00 0.00 0.00 67 1020.5
20260906020007 16 128 0.0 1.6 0.00 0.00 0.00 66 1020.3
20260906015505 16 129 0.0 1.6 0.00 0.00 0.00 66 1020.3
20260906014503 16 128 0.0 1.6 0.00 0.00 0.00 65 1020.1
20260906014003 16 128 0.0 1.6 0.00 0.00 0.00 64 1020.1
20260906013501 16 25 0.0 1.6 0.00 0.00 0.00 64 1020.1
20260906013001 16 25 0.0 0.0 0.00 0.00 0.00 64 1020.2
20260906012503 16 25 0.0 0.0 0.00 0.00 0.00 63 1020.2
20260906012002 17 25 0.0 0.0 0.00 0.00 0.00 62 1020.2
20260906011503 17 25 0.0 1.6 0.00 0.00 0.00 62 1020.1
20260906011002 17 24 0.0 1.6 0.00 0.00 0.00 62 1020.1
20260906010504 17 25 0.0 1.6 0.00 0.00 0.00 62 1020.0
20260906005959 17 82 0.0 1.6 0.00 0.00 0.00 62 1019.9
20260906005458 17 128 0.0 1.6 0.00 0.00 0.00 62 1019.9
20260906004959 17 128 0.0 1.6 0.00 0.00 0.00 61 1019.9
20260906004459 17 129 0.0 1.6 0.00 0.00 0.00 61 1019.8
20260906003459 17 128 0.0 1.6 0.00 0.00 0.00 61 1019.7
20260906002011 17 128 0.0 1.6 0.00 0.00 0.00 61 1019.6
20260906001505 17 128 0.0 1.6 0.00 0.00 0.00 61 1019.6
20260906000953 17 128 0.0 1.6 0.00 0.00 0.00 61 1019.5
20260906000455 17 128 0.0 1.6 0.00 0.00 0.00 61 1019.5
20260905235455 17 117 0.0 3.2 0.00 0.00 0.00 60 1019.5
20260905234455 17 118 0.0 1.6 0.00 0.00 0.00 60 1019.4
20260905233453 18 117 0.0 1.6 0.00 0.00 0.00 59 1019.3
20260905232951 18 117 0.0 1.6 0.00 0.00 0.00 58 1019.3
20260905231939 18 117 0.0 1.6 0.00 0.00 0.00 57 1019.2
20260905231432 18 5 0.0 1.6 0.00 0.00 0.00 56 1019.1
20260905230927 18 349 0.0 1.6 0.00 0.00 0.00 56 1019.1
20260905230428 18 326 0.0 3.2 0.00 0.00 0.00 56 1019.0
20260905225927 18 64 1.6 4.8 0.00 0.00 0.00 56 1019.0
20260905225430 18 325 1.6 4.8 0.00 0.00 0.00 56 1018.9
20260905224422 18 336 0.0 1.6 0.00 0.00 0.00 55 1018.8
20260905223921 18 118 0.0 3.2 0.00 0.00 0.00 54 1018.7
20260905223419 18 118 0.0 3.2 0.00 0.00 0.00 54 1018.7
20260905222919 18 345 0.0 0.0 0.00 0.00 0.00 54 1018.6
20260905222421 18 344 0.0 1.6 0.00 0.00 0.00 53 1018.5
20260905221919 18 344 0.0 1.6 0.00 0.00 0.00 53 1018.2
20260905221417 18 344 0.0 0.0 0.00 0.00 0.00 53 1018.2
20260905220919 19 343 0.0 1.6 0.00 0.00 0.00 53 1018.2
20260905220419 19 344 0.0 1.6 0.00 0.00 0.00 52 1018.2
20260905215915 19 334 0.0 3.2 0.00 0.00 0.00 52 1018.1
20260905215415 19 332 0.0 3.2 0.00 0.00 0.00 52 1018.0
20260905214914 19 321 0.0 1.6 0.00 0.00 0.00 52 1018.0
20260905214418 19 32 0.0 4.8 0.00 0.00 0.00 51 1018.0
20260905213914 19 141 0.0 4.8 0.00 0.00 0.00 51 1018.0
20260905213409 20 127 0.0 4.8 0.00 0.00 0.00 51 1017.8
20260905212913 20 127 0.0 4.8 0.00 0.00 0.00 51 1017.7
20260905211850 20 146 0.0 1.6 0.00 0.00 0.00 51 1017.6
20260905210332 20 143 0.0 0.0 0.00 0.00 0.00 49 1017.4
20260905205321 20 143 0.0 1.6 0.00 0.00 0.00 49 1017.3
20260905204814 20 143 0.0 1.6 0.00 0.00 0.00 47 1017.4
20260905203256 20 149 0.0 1.6 0.00 0.00 0.00 48 1017.2
20260905202751 20 118 0.0 1.6 0.00 0.00 0.00 47 1017.2
20260905202245 21 174 0.0 3.2 0.00 0.00 0.00 47 1017.1
20260905201738 21 175 0.0 3.2 0.00 0.00 0.00 46 1017.1
20260905201232 21 82 0.0 1.6 0.00 0.00 0.00 45 1017.3
20260905195209 21 98 0.0 1.6 0.00 0.00 0.00 44 1017.0
20260905194702 21 99 0.0 3.2 0.00 0.00 0.00 44 1017.0
20260905193703 21 27 0.0 4.8 0.00 0.00 0.00 44 1016.9
20260905193144 21 30 0.0 3.2 0.00 0.00 0.00 44 1016.9
20260905192643 22 27 0.0 4.8 0.00 0.00 0.00 43 1016.8
20260905192132 22 18 0.0 4.8 0.00 0.00 0.00 43 1016.9
20260905191629 22 108 0.0 3.2 0.00 0.00 0.00 43 1016.7
20260905191121 22 129 1.6 8.0 0.00 0.00 0.00 42 1016.7
20260905190614 22 132 1.6 8.0 0.00 0.00 0.00 41 1016.6
20260905190115 23 284 0.0 4.8 0.00 0.00 0.00 41 1016.6
20260905185614 23 283 0.0 1.6 0.00 0.00 0.00 41 1016.5
20260905185118 23 283 0.0 1.6 0.00 0.00 0.00 40 1016.5
20260905184610 23 284 0.0 1.6 0.00 0.00 0.00 41 1016.5
20260905184113 23 284 0.0 1.6 0.00 0.00 0.00 40 1016.5
20260905183610 23 283 0.0 1.6 0.00 0.00 0.00 41 1016.4
20260905183110 23 284 0.0 3.2 0.00 0.00 0.00 40 1016.1
20260905182608 24 284 0.0 3.2 0.00 0.00 0.00 38 1016.1
20260905182125 24 284 0.0 3.2 0.00 0.00 0.00 38 1016.0
20260905181608 24 281 0.0 4.8 0.00 0.00 0.00 38 1015.9
20260905181128 24 284 0.0 4.8 0.00 0.00 0.00 38 1015.9
20260905180123 25 284 0.0 3.2 0.00 0.00 0.00 37 1015.7
20260905175604 25 284 1.6 4.8 0.00 0.00 0.00 36 1015.8
20260905175059 25 284 1.6 4.8 0.00 0.00 0.00 35 1015.8
20260905174600 26 284 0.0 1.6 0.00 0.00 0.00 37 1015.6
20260905174107 26 239 0.0 1.6 0.00 0.00 0.00 36 1015.6
20260905173055 27 239 0.0 0.0 0.00 0.00 0.00 34 1015.5
20260905172555 27 239 0.0 0.0 0.00 0.00 0.00 33 1015.4
20260905172055 27 239 0.0 0.0 0.00 0.00 0.00 31 1015.4
20260905171552 28 239 0.0 1.6 0.00 0.00 0.00 30 1015.4
20260905171050 28 239 0.0 1.6 0.00 0.00 0.00 29 1015.3
20260905170551 29 239 0.0 1.6 0.00 0.00 0.00 27 1015.2
20260905170100 30 239 0.0 0.0 0.00 0.00 0.00 26 1015.2
20260905165546 30 239 0.0 0.0 0.00 0.00 0.00 26 1015.1
20260905165042 31 239 0.0 1.6 0.00 0.00 0.00 25 1015.1
20260905164542 31 238 0.0 1.6 0.00 0.00 0.00 24 1015.1
20260905164042 32 239 0.0 1.6 0.00 0.00 0.00 22 1015.1
20260905163540 32 239 0.0 1.6 0.00 0.00 0.00 22 1015.1
20260905163040 32 239 0.0 1.6 0.00 0.00 0.00 22 1015.1
20260905162538 32 239 0.0 1.6 0.00 0.00 0.00 21 1015.1
20260905161539 33 240 1.6 6.4 0.00 0.00 0.00 21 1015.2
20260905161044 33 235 1.6 6.4 0.00 0.00 0.00 21 1015.2
20260905160540 33 242 0.0 4.8 0.00 0.00 0.00 21 1015.2
20260905160055 33 284 0.0 3.2 0.00 0.00 0.00 20 1015.2
20260905155536 33 237 1.6 3.2 0.00 0.00 0.00 21 1015.2
20260905155035 34 240 1.6 3.2 0.00 0.00 0.00 20 1015.3
20260905154539 34 246 0.0 3.2 0.00 0.00 0.00 20 1015.2
20260905154035 33 248 1.6 4.8 0.00 0.00 0.00 20 1015.2
20260905153535 33 246 1.6 6.4 0.00 0.00 0.00 19 1015.2
20260905152535 33 253 1.6 6.4 0.00 0.00 0.00 20 1015.1
20260905152034 33 239 3.2 8.0 0.00 0.00 0.00 20 1015.2
20260905151538 33 284 3.2 8.0 0.00 0.00 0.00 20 1015.2
20260905151031 33 264 3.2 8.0 0.00 0.00 0.00 20 1015.2
20260905150530 34 231 1.6 8.0 0.00 0.00 0.00 20 1015.3
20260905150032 34 263 1.6 8.0 0.00 0.00 0.00 20 1015.3
20260905145030 34 255 4.8 11.3 0.00 0.00 0.00 20 1015.4
20260905144533 34 280 4.8 11.3 0.00 0.00 0.00 20 1015.4
20260905144032 34 233 3.2 8.0 0.00 0.00 0.00 20 1015.4
20260905143530 34 255 3.2 9.7 0.00 0.00 0.00 20 1015.5
20260905142525 34 235 3.2 11.3 0.00 0.00 0.00 21 1015.5
20260905142025 33 243 3.2 11.3 0.00 0.00 0.00 21 1015.5
20260905141527 33 284 1.6 9.7 0.00 0.00 0.00 21 1015.6
20260905141026 34 284 1.6 9.7 0.00 0.00 0.00 21 1015.6
20260905140029 34 228 3.2 8.0 0.00 0.00 0.00 22 1015.6
20260905135523 34 284 1.6 8.0 0.00 0.00 0.00 22 1015.7
20260905135023 33 259 3.2 11.3 0.00 0.00 0.00 23 1015.8
20260905134524 33 277 3.2 11.3 0.00 0.00 0.00 23 1015.8
20260905134025 33 253 1.6 6.4 0.00 0.00 0.00 23 1015.9
20260905133526 33 238 3.2 9.7 0.00 0.00 0.00 23 1015.9
20260905133022 33 281 3.2 9.7 0.00 0.00 0.00 23 1015.9
20260905132522 33 264 1.6 9.7 0.00 0.00 0.00 24 1015.9
20260905132022 33 212 3.2 14.5 0.00 0.00 0.00 24 1015.9
20260905131521 33 255 3.2 14.5 0.00 0.00 0.00 24 1016.0
20260905131019 33 237 3.2 9.7 0.00 0.00 0.00 24 1016.0
20260905130515 33 233 3.2 14.5 0.00 0.00 0.00 24 1016.1
20260905124013 32 243 1.6 6.4 0.00 0.00 0.00 27 1016.5
20260905123516 32 179 3.2 9.7 0.00 0.00 0.00 26 1016.5
20260905123016 33 283 3.2 11.3 0.00 0.00 0.00 26 1016.6
20260905121510 32 233 3.2 11.3 0.00 0.00 0.00 28 1016.7
20260905115505 32 205 3.2 12.9 0.00 0.00 0.00 28 1016.9
20260905114452 32 280 3.2 12.9 0.00 0.00 0.00 29 1017.1
20260905113947 32 155 3.2 16.1 0.00 0.00 0.00 29 1017.1
20260905113440 32 249 4.8 16.1 0.00 0.00 0.00 29 1017.2
20260905112935 32 222 3.2 9.7 0.00 0.00 0.00 29 1017.2
20260905111923 32 278 1.6 11.3 0.00 0.00 0.00 29 1017.2
20260905111416 32 257 3.2 12.9 0.00 0.00 0.00 30 1017.2
20260905110916 31 262 4.8 12.9 0.00 0.00 0.00 31 1017.3
20260905105900 31 231 3.2 11.3 0.00 0.00 0.00 32 1017.3
20260905105353 30 219 3.2 11.3 0.00 0.00 0.00 32 1017.3
20260905104846 30 111 3.2 14.5 0.00 0.00 0.00 32 1017.4
20260905104341 31 249 3.2 14.5 0.00 0.00 0.00 31 1017.5
20260905103835 31 249 3.2 8.0 0.00 0.00 0.00 32 1017.6
20260905103328 31 261 3.2 8.0 0.00 0.00 0.00 32 1017.6
20260905102316 31 266 3.2 11.3 0.00 0.00 0.00 32 1017.8
20260905101811 30 286 3.2 11.3 0.00 0.00 0.00 34 1017.8
20260905101305 30 179 3.2 8.0 0.00 0.00 0.00 34 1017.9
20260905100759 30 214 3.2 9.7 0.00 0.00 0.00 34 1018.0
20260905100252 30 232 3.2 9.7 0.00 0.00 0.00 34 1018.0
20260905095747 30 212 1.6 8.0 0.00 0.00 0.00 35 1018.0
20260905095243 29 200 1.6 8.0 0.00 0.00 0.00 35 1018.1
20260905094230 29 284 1.6 9.7 0.00 0.00 0.00 35 1018.4
20260905093722 28 242 1.6 6.4 0.00 0.00 0.00 36 1018.4
20260905093219 28 186 1.6 6.4 0.00 0.00 0.00 35 1018.5
20260905092711 28 284 1.6 9.7 0.00 0.00 0.00 36 1018.6
20260905091659 28 184 1.6 8.0 0.00 0.00 0.00 36 1018.6
20260905091153 28 225 1.6 8.0 0.00 0.00 0.00 37 1018.6
20260905090141 27 211 1.6 3.2 0.00 0.00 0.00 38 1018.7
20260905085635 27 276 1.6 3.2 0.00 0.00 0.00 40 1018.7
20260905084624 27 255 0.0 4.8 0.00 0.00 0.00 41 1018.8
20260905084118 26 240 0.0 3.2 0.00 0.00 0.00 42 1018.9
20260905083623 26 226 0.0 8.0 0.00 0.00 0.00 44 1019.0
20260905083105 25 184 0.0 8.0 0.00 0.00 0.00 44 1019.0
20260905082559 25 245 0.0 4.8 0.00 0.00 0.00 44 1019.0
20260905082052 25 285 0.0 1.6 0.00 0.00 0.00 45 1019.0
20260905081548 24 283 0.0 3.2 0.00 0.00 0.00 46 1019.1
20260905081041 24 219 0.0 3.2 0.00 0.00 0.00 46 1019.1
20260905080535 24 242 0.0 3.2 0.00 0.00 0.00 46 1019.1
20260905080031 24 224 0.0 3.2 0.00 0.00 0.00 46 1019.1
20260905075523 23 181 0.0 3.2 0.00 0.00 0.00 48 1019.2
20260905075017 23 139 0.0 3.2 0.00 0.00 0.00 48 1019.2
20260905074512 23 224 0.0 3.2 0.00 0.00 0.00 49 1019.2
20260905074005 22 221 0.0 4.8 0.00 0.00 0.00 50 1019.2
20260905072452 21 278 0.0 3.2 0.00 0.00 0.00 53 1019.1
20260905071435 21 161 0.0 1.6 0.00 0.00 0.00 54 1019.1
20260905070929 21 181 0.0 1.6 0.00 0.00 0.00 55 1019.1
20260905070423 20 176 0.0 3.2 0.00 0.00 0.00 57 1019.1
20260905065920 20 138 0.0 6.4 0.00 0.00 0.00 57 1019.1
20260905064907 20 219 0.0 4.8 0.00 0.00 0.00 58 1019.1
20260905064358 19 143 0.0 3.2 0.00 0.00 0.00 59 1019.2
20260905063857 19 151 0.0 1.6 0.00 0.00 0.00 61 1019.2
20260905063347 18 181 0.0 1.6 0.00 0.00 0.00 62 1019.3
20260905062336 17 154 0.0 3.2 0.00 0.00 0.00 65 1019.3
20260905061837 17 146 0.0 3.2 0.00 0.00 0.00 65 1019.4
20260905060836 17 139 0.0 3.2 0.00 0.00 0.00 66 1019.6
20260905060337 17 143 0.0 3.2 0.00 0.00 0.00 66 1019.6
20260905055836 17 118 0.0 3.2 0.00 0.00 0.00 67 1019.6
20260905055338 16 118 0.0 1.6 0.00 0.00 0.00 68 1019.6
20260905054336 16 118 0.0 1.6 0.00 0.00 0.00 68 1019.5
20260905052336 15 129 0.0 1.6 0.00 0.00 0.00 73 1019.5
20260905051831 14 134 0.0 3.2 0.00 0.00 0.00 74 1019.5
20260905051328 14 134 0.0 3.2 0.00 0.00 0.00 76 1019.5
20260905050328 13 146 0.0 3.2 0.00 0.00 0.00 76 1019.5
20260905045825 13 134 0.0 1.6 0.00 0.00 0.00 77 1019.5
20260905045321 13 129 0.0 3.2 0.00 0.00 0.00 77 1019.5
20260905044321 13 134 0.0 4.8 0.00 0.00 0.00 77 1019.5
20260905041818 12 122 0.0 1.6 0.00 0.00 0.00 81 1019.3
20260905041317 12 122 0.0 1.6 0.00 0.00 0.00 81 1019.3
20260905040818 12 122 0.0 0.0 0.00 0.00 0.00 81 1019.2
20260905040317 12 123 0.0 1.6 0.00 0.00 0.00 81 1019.2